星链-2232 (STARLINK-2232 )

导读

STARLINK-2232是美国SpaceX公司星链星座的一员,于2021年5月15日发射升空。星链计划旨在打造近地轨道巨型卫星星座,提供全球覆盖的高速宽带互联网服务,为网络基础设施薄弱地区接入网络提供可能。作为星链组网过程中发射的卫星,该卫星助力星座规模扩张,推动全球卫星互联网络搭建,目前星链已成为全球规模最大的在轨卫星星座。

基本信息
目录编号:
48578
目录名称:
STARLINK-2232
国际标识:
2021-041AB
轨道中心:
EARTH
卫星名称:
星链-2232
卫星全名:
星链-2232 (STARLINK-2232 )
卫星状态:
在轨 (已飞行1860 天)
发射日期:
2021-05-15 UTC
国别 :
美国 (US)
星等 :
--
轨道信息
数据来源 国际轨道数据
星历时间: 2026-06-18T12:35:39+0800
12小时前
查看轨道信息
半长轴: 6848.852km
偏心率: 0.0000988
轨道倾角: 53.159°
近地点辐角 76.124°
升交点赤经 19.194°
平近点角 283.987°
近地点: 470.038km
远地点: 471.392km
周期: 94.013分钟
每日圈数: 15.317087
详细信息
固有亮度:
5
最大亮度:
2.5
卫星平台:
Starlink V1.0
覆盖范围:
全球
运营商:
太空探索技术公司
运营商所在国:
美国
制造商(研发单位):
太空探索技术公司
制造商所在国:
美国
使用方式:
暂无
卫星简介
星链(Starlink)计划是由太空探索技术公司(SpaceX)提出的一个巨型低轨卫星互联网星座项目,计划在2019年至2024年间在太空搭建由约1.2万颗卫星组成的“星链”网络,其中1584颗将部署在地球上空550千米处的近地轨道,并从2020年开始工作。该卫星仍在工作。
2D轨道图
3D轨道图
轨道高度分析图
轨道倾角分析图
轨道综合分析图
查看轨道综合分析图